Weather History for West Palm Beach, FL

Change the Weather History Date:

Wednesday, November 26, 2014

  Actual Average Record
Temperature  
Mean Temperature 68 °F 71 °F  
Max Temperature 80 °F 79 °F 87 °F (1948)
Min Temperature 56 °F 64 °F 36 °F (1950)
Degree Days  
Heating Degree Days 0 1  
Month to date heating degree days 10 5  
Since 1 July heating degree days 10 6  
Cooling Degree Days 3 7  
Month to date cooling degree days 194 218  
Year to date cooling degree days 4130 3839  
Growing Degree Days 18 (Base 50)    
Moisture  
Dew Point 65 °F    
Average Humidity 78    
Maximum Humidity 91    
Minimum Humidity 65    
Precipitation  
Precipitation 0.14 in 0.13 in 2.15 in (1921)
Month to date precipitation 1.94 4.22  
Year to date precipitation 59.53 58.42  
Snow  
Snow 0.00 in - - ()
Month to date snowfall 0.0  
Since 1 July snowfall 0.0  
Since 1 September snowfall 0.0  
Snow Depth 0.00 in    
Sea Level Pressure  
Sea Level Pressure 30.02 in    
Wind  
Wind Speed 12 mph (West)    
Max Wind Speed 28 mph    
Max Gust Speed 32 mph    
Visibility 10 miles    
Events Rain    
T = Trace of Precipitation, MM = Missing Value Source: NWS Daily Summary

Daily Weather History Graph

Daily Weather History Graph

Search for Another Location

Airport:

Trip Planner

Search our weather history database for the weather conditions in past years. The results will help you decide how hot, cold, wet, or windy it might be!

Date:

Astronomy

Nov. 26, 2014 Rise Set
Actual Time 6:48 AM EST 5:27 PM EST
Civil Twilight 6:23 AM EST 5:52 PM EST
Nautical Twilight 5:54 AM EST 6:20 PM EST
Astronomical Twilight 5:26 AM EST 6:48 PM EST
Moon 10:26 AM EST (11/26) 9:48 PM EST (11/26)
Length of Visible Light 11h 29m
Length of Day
10h 39m
Waxing Crescent, 21% of the Moon is Illuminated
Nov 26
Waxing Crescent
Nov 29
First Quarter
Dec 6
Full
Dec 14
Last Quarter
Dec 21
New

Hourly Weather History & Observations

Time (EST) Temp. Heat Index Dew Point Humidity Pressure Visibility Wind Dir Wind Speed Gust Speed Precip Events Conditions
12:53 AM 80.1 °F 85.4 °F 75.9 °F 87% 29.91 in 10.0 mi South 15.0 mph - N/A   Mostly Cloudy
1:02 AM 80.1 °F 85.1 °F 75.0 °F 85% 29.91 in 10.0 mi South 11.5 mph - N/A   Overcast
1:36 AM 80.1 °F 85.1 °F 75.0 °F 85% 29.91 in 10.0 mi South 12.7 mph - N/A   Overcast
1:53 AM 80.1 °F 85.1 °F 75.0 °F 85% 29.91 in 10.0 mi South 8.1 mph - N/A   Mostly Cloudy
2:53 AM 79.0 °F - 75.0 °F 88% 29.91 in 10.0 mi South 8.1 mph - N/A   Mostly Cloudy
3:53 AM 79.0 °F - 75.0 °F 88% 29.90 in 10.0 mi South 10.4 mph - N/A   Mostly Cloudy
4:42 AM 79.0 °F - 75.9 °F 90% 29.91 in 10.0 mi South 11.5 mph - N/A   Mostly Cloudy
4:53 AM 79.0 °F - 75.9 °F 90% 29.91 in 10.0 mi South 9.2 mph - N/A   Mostly Cloudy
5:11 AM 78.8 °F - 75.2 °F 89% 29.92 in 10.0 mi SSW 9.2 mph - N/A   Mostly Cloudy
5:53 AM 79.0 °F - 75.9 °F 90% 29.93 in 10.0 mi SSW 10.4 mph - N/A   Mostly Cloudy
6:53 AM 79.0 °F - 75.0 °F 88% 29.95 in 10.0 mi SSW 10.4 mph - N/A   Mostly Cloudy
7:40 AM 80.1 °F 85.1 °F 75.0 °F 85% 29.96 in 10.0 mi SSW 12.7 mph - N/A   Mostly Cloudy
7:53 AM 78.1 °F - 72.0 °F 81% 29.97 in 10.0 mi WSW 19.6 mph 27.6 mph 0.00 in Rain Light Rain
7:57 AM 78.1 °F - 72.0 °F 81% 29.97 in 5.0 mi WSW 18.4 mph 27.6 mph 0.00 in Rain Light Rain
8:21 AM 75.9 °F - 73.0 °F 91% 29.99 in 5.0 mi WSW 17.3 mph 24.2 mph 0.07 in Rain Light Rain
8:53 AM 75.9 °F - 73.0 °F 91% 30.01 in 10.0 mi WSW 12.7 mph - 0.12 in   Overcast
9:53 AM 69.1 °F - 66.9 °F 93% 30.05 in 10.0 mi WNW 19.6 mph - 0.00 in Rain Light Rain
10:01 AM 68.0 °F - 66.0 °F 93% 30.05 in 10.0 mi WNW 19.6 mph - 0.00 in Rain Light Rain
10:53 AM 68.0 °F - 64.9 °F 90% 30.07 in 10.0 mi NW 10.4 mph - 0.00 in   Overcast
11:53 AM 69.1 °F - 64.0 °F 84% 30.07 in 10.0 mi WNW 11.5 mph - 0.02 in Rain Light Rain
12:38 PM 68.0 °F - 62.1 °F 81% 30.06 in 10.0 mi NW 15.0 mph 25.3 mph 0.00 in   Overcast
12:53 PM 66.9 °F - 61.0 °F 81% 30.06 in 10.0 mi NW 16.1 mph 26.5 mph 0.00 in   Overcast
1:53 PM 64.0 °F - 59.0 °F 84% 30.07 in 10.0 mi NW 15.0 mph - N/A   Overcast
2:53 PM 63.0 °F - 57.0 °F 81% 30.09 in 10.0 mi NW 11.5 mph - N/A   Mostly Cloudy
3:53 PM 64.9 °F - 55.0 °F 70% 30.09 in 10.0 mi NNW 16.1 mph - N/A   Mostly Cloudy
4:53 PM 63.0 °F - 52.0 °F 67% 30.12 in 10.0 mi NNW 12.7 mph - N/A   Mostly Cloudy
5:53 PM 62.1 °F - 50.0 °F 65% 30.13 in 10.0 mi NW 9.2 mph - N/A   Mostly Cloudy
6:53 PM 60.1 °F - 50.0 °F 69% 30.15 in 10.0 mi NW 11.5 mph - N/A   Mostly Cloudy
7:53 PM 59.0 °F - 48.0 °F 67% 30.16 in 10.0 mi NW 12.7 mph - N/A   Mostly Cloudy
8:53 PM 57.0 °F - 50.0 °F 77% 30.16 in 10.0 mi NW 10.4 mph - N/A   Mostly Cloudy
9:53 PM 55.9 °F - 50.0 °F 80% 30.18 in 10.0 mi NW 10.4 mph - N/A   Scattered Clouds
10:53 PM 55.9 °F - 48.0 °F 75% 30.19 in 10.0 mi NNW 10.4 mph - N/A   Scattered Clouds
11:53 PM 55.9 °F - 48.0 °F 75% 30.18 in 10.0 mi NW 11.5 mph - N/A   Scattered Clouds